sat.trackr.live / text

‹ back to catalog

STARLINK-1458

NORAD 45675 · 2020-035U

PAYLOAD ACTIVE UNKNOWN

§ Identity

Operator
Country
US
Launch date
2020-06-04
Launch site
AFETR
Launch vehicle
Mass (kg)
RCS (m²)

Purposes: comms

External: N2YO · Heavens-Above · Gunter

§ Orbital elements

Epoch: 2026-05-25T03:40:41.382336Z

Period
92.65 min
Inclination
53.0467°
Eccentricity
0.0004620
Mean motion
15.54237976 rev/d
Perigee alt
401.2 km
Apogee alt
407.5 km
Semi-major
6,782.5 km
B*
1.3400e-3
RAAN
49.3396°
Arg perigee
56.0766°
Mean anomaly
304.0682°
Rev number
33,070

§ Raw data

STARLINK-14581 45675U 20035U   26145.15325674  .00089501  00000+0  13400-2 0  99902 45675  53.0467  49.3396 0004620  56.0766 304.0682 15.54237976330705

JSON: /api/v1/satellites/45675 · /tle

For live sub-satellite position, see the globe view (requires WebGL).

§ Visibility from observer

Set your observer location to see the next 7 days of passes ≥ 10°. The values pass through the URL so the page stays shareable.

No JS? Fill the form by hand. The geolocation button needs JavaScript.